DLH5HC EDDF-EKBI

Flight info

Callsign DLH5HC
Flight time N/A
Altitude 37000
Route MARUN6E/07C MARUN Y150 TOLGI DCT AMRAK/N0456F380 DCT GELBA
Aircraft A319/M-SDE3FGHIRWY/LB1

Departure

Time 2026-04-14 16:49
Airport Frankfurt Main Airport (EDDF)

Arrival

Time N/A
Airport Billund Airport (EKBI)
Time Latitude Longitude Altitude Speed Heading
2026-04-14 16:17 50.04904 8.58870 366 ft 0 kts 160°
2026-04-14 16:33 50.04908 8.58868 362 ft 2 kts 160°
2026-04-14 16:33 50.04927 8.58857 363 ft 3 kts 160°
2026-04-14 16:34 50.04949 8.58844 360 ft 3 kts 160°
2026-04-14 16:34 50.04971 8.58832 366 ft 3 kts 160°
2026-04-14 16:34 50.04993 8.58832 364 ft 3 kts 264°
2026-04-14 16:34 50.04993 8.58842 362 ft 0 kts 255°
2026-04-14 16:39 50.04992 8.58838 363 ft 2 kts 248°
2026-04-14 16:40 50.04972 8.58760 364 ft 10 kts 250°
2026-04-14 16:40 50.04934 8.58669 361 ft 10 kts 207°
2026-04-14 16:40 50.04877 8.58690 363 ft 7 kts 159°
2026-04-14 16:40 50.04840 8.58711 363 ft 4 kts 159°
2026-04-14 16:41 50.04815 8.58726 367 ft 5 kts 160°
2026-04-14 16:41 50.04754 8.58758 369 ft 14 kts 171°
2026-04-14 16:41 50.04688 8.58627 369 ft 19 kts 250°
2026-04-14 16:41 50.04641 8.58432 372 ft 19 kts 249°
2026-04-14 16:42 50.04593 8.58229 368 ft 23 kts 250°
2026-04-14 16:42 50.04535 8.57985 367 ft 19 kts 250°
2026-04-14 16:42 50.04510 8.57883 367 ft 3 kts 249°
2026-04-14 16:42 50.04502 8.57848 365 ft 5 kts 249°
2026-04-14 16:43 50.04471 8.57719 364 ft 20 kts 249°
2026-04-14 16:43 50.04421 8.57506 363 ft 22 kts 250°
2026-04-14 16:43 50.04365 8.57272 363 ft 24 kts 249°
2026-04-14 16:43 50.04316 8.57069 362 ft 11 kts 250°
2026-04-14 16:44 50.04305 8.57020 362 ft 1 kts 250°
2026-04-14 16:44 50.04299 8.56995 361 ft 3 kts 250°
2026-04-14 16:44 50.04288 8.56950 361 ft 6 kts 249°
2026-04-14 16:45 50.04194 8.56556 361 ft 26 kts 249°
2026-04-14 16:45 50.04142 8.56339 354 ft 14 kts 249°
2026-04-14 16:45 50.04106 8.56192 354 ft 15 kts 249°
2026-04-14 16:45 50.04070 8.56036 351 ft 16 kts 250°
2026-04-14 16:46 50.04029 8.55868 357 ft 18 kts 249°
2026-04-14 16:46 50.03985 8.55684 349 ft 19 kts 249°
2026-04-14 16:46 50.03940 8.55493 350 ft 19 kts 250°
2026-04-14 16:46 50.03894 8.55303 354 ft 19 kts 249°
2026-04-14 16:47 50.03848 8.55110 353 ft 19 kts 249°
2026-04-14 16:47 50.03801 8.54911 352 ft 20 kts 250°
2026-04-14 16:47 50.03751 8.54704 346 ft 21 kts 249°
2026-04-14 16:47 50.03699 8.54488 347 ft 22 kts 249°
2026-04-14 16:48 50.03617 8.54308 341 ft 19 kts 172°
2026-04-14 16:48 50.03501 8.54393 343 ft 18 kts 124°
2026-04-14 16:48 50.03504 8.54475 346 ft 0 kts 70°
2026-04-14 16:48 50.03507 8.54489 351 ft 8 kts 70°
2026-04-14 16:49 50.03625 8.54981 345 ft 86 kts 69°
2026-04-14 16:49 50.03910 8.56170 359 ft 145 kts 69°
2026-04-14 16:49 50.04302 8.57823 635 ft 168 kts 69°
2026-04-14 16:49 50.04698 8.59546 1276 ft 170 kts 69°
2026-04-14 16:50 50.05111 8.61302 1844 ft 180 kts 68°
2026-04-14 16:50 50.05847 8.62989 2173 ft 202 kts 37°
2026-04-14 16:50 50.07250 8.63661 2530 ft 227 kts